Overview Statistics Trail Chart Weather Telemetry Raw packets
 

This is the latest recevied weather packets stored in our database for station/object OE6PWE-13. If no packets are shown the sender has not sent any weather packets the latest 10 day(s).

<< 2 3 4 5 6 7 8 >>
Time Temp. Humidity Pressure Rain* Wind** Luminosity Snow
1788617712 18.33° C 94% 1020 hPa 0 mm - - -
1788616812 17.78° C 97% 1020 hPa 0 mm - - -
1788615911 17.78° C 99% 1020 hPa 0 mm - - -
1788615012 17.22° C 99% 1020 hPa 0 mm - - -
1788614111 17.78° C 99% 1020 hPa 0 mm - - -
1788613211 17.78° C 99% 1020 hPa 0 mm - - -
1788612312 17.78° C 99% 1020 hPa 0 mm - - -
1788611411 17.78° C 99% 1020 hPa 0 mm - - -
1788610512 17.78° C 99% 1021 hPa 0 mm - - -
1788609612 18.33° C 97% 1020 hPa 0 mm - - -
1788608712 21.67° C 83% 1020 hPa 0 mm - - -
1788607812 22.78° C 65% 1020 hPa 0 mm - - -
1788606912 23.89° C 63% 1019 hPa 0 mm - - -
1788606012 23.33° C 61% 1019 hPa 0 mm - - -
1788605111 23.33° C 63% 1019 hPa 0 mm - - -
1788604211 23.33° C 61% 1019 hPa 0 mm - - -
1788603311 22.78° C 62% 1019 hPa 0 mm - - -
1788602411 23.33° C 61% 1019 hPa 0 mm - - -
1788601512 22.78° C 61% 1019 hPa 0 mm - - -
1788600612 21.67° C 68% 1019 hPa 0 mm - - -
1788599711 21.11° C 71% 1019 hPa 0 mm - - -
1788598812 21.11° C 71% 1019 hPa 0 mm - - -
1788597912 21.67° C 73% 1019 hPa 0 mm - - -
1788597011 22.22° C 73% 1019 hPa 0 mm - - -
1788596111 21.67° C 77% 1018 hPa 0 mm - - -

* Rain latest hour (hover to see other rain measurements)
** Current wind speed in m/s (hover to see current wind gust speed)